Regional Weather Roundup
Issued by NWS

Home | Current Version | Previous Version | Text Only | Print | Product List | Glossary Off
Versions: 1 2 3 4 5 6 7 8 9 10 11 12 13 14 15 16 17 18 19 20 21 22 23 24 25 26 27 28 29 30 31 32 33 34 35 36 37 38 39 40 41 42 43 44 45 46 47 48 49 50

000
ASUS43 KOAX 180702
RWRNE

WEATHER ROUNDUP FOR NEBRASKA
NATIONAL WEATHER SERVICE OMAHA NE
200 AM CDT FRI AUG 18 2017

NOTES: SATELLITE DATA IS BEING USED TO AUGMENT CLOUD COVER ABOVE
       12000 FEET.
       "FAIR" INDICATES FEW OR NO CLOUDS BELOW 12,000 FEET WITH NO
       SIGNIFICANT WEATHER AND/OR OBSTRUCTIONS TO VISIBILITY.


NEZ001>004-019>022-054>056-180800-
NEBRASKA PANHANDLE

CITY           SKY/WX    TMP DP  RH WIND       PRES   REMARKS
SCOTTSBLUFF    CLEAR     57  50  77 NW8       30.10R
ALLIANCE       CLEAR     53  49  86 MISG      30.07R
CHADRON        CLEAR     54  50  86 SW6       30.04R
GORDON         FAIR      52  49  90 NW3       30.04S
SIDNEY         PTCLDY    54  49  83 NW7       30.11R
$$

NEZ057>060-069>072-079>082-180800-
SOUTHWEST NEBRASKA

CITY           SKY/WX    TMP DP  RH WIND       PRES   REMARKS
NORTH PLATTE   LGT RAIN  66  57  72 S8        30.01S
IMPERIAL       CLOUDY    64  57  78 SW7       30.02R
LEXINGTON      CLOUDY    66  60  79 SW6       29.98S
MCCOOK         CLOUDY    67  57  70 SW9       29.96F
OGALLALA       CLOUDY    64  59  85 NE5       30.03R
$$

NEZ005>010-023>029-035>040-094-180800-
NORTH CENTRAL NEBRASKA

CITY           SKY/WX    TMP DP  RH WIND       PRES   REMARKS
VALENTINE      CLEAR     62  57  83 NW3       29.96R
AINSWORTH      PTCLDY    60  59  98 SW6       29.96S
BROKEN BOW     LGT RAIN  65  57  75 E8        29.97F
O`NEILL        CLOUDY    63  62  95 S9        29.91R
ORD            MOCLDY    64  58  80 N7        29.97S
THEDFORD       CLOUDY    59  58  94 CALM      30.01R
$$

NEZ041-046>049-061>064-073>077-083>087-180800-
SOUTH CENTRAL NEBRASKA

CITY           SKY/WX    TMP DP  RH WIND       PRES   REMARKS
GRAND ISLAND   CLOUDY    70  58  65 NE15      29.98R
AURORA         CLOUDY    69  61  74 NW10G23   29.99R
HASTINGS       MOCLDY    71  57  61 S7        29.94F
HEBRON         CLOUDY    72  60  66 S8        29.94F
HOLDREGE       PTCLDY    64  55  74 W13       29.99R
KEARNEY        CLOUDY    70  58  65 NW10G25   29.99R
YORK           MOCLDY    66  63  88 NW14G21   30.00R
$$

NEZ011>018-030>034-042>045-180800-
NORTHEAST NEBRASKA

CITY           SKY/WX    TMP DP  RH WIND       PRES   REMARKS
NORFOLK        TSTM      64  60  87 NW8       30.01S
ALBION         LGT RAIN  65  61  88 NE9       29.96F
BLAIR          RAIN      67  62  84 SE5       29.93F
COLUMBUS       LGT RAIN  67  61  81 NW20G28   30.00R
FREMONT        PTCLDY    65  64  94 SE3       29.92F
TEKAMAH        CLOUDY    62  60  93 SE5       29.91F
WAYNE          CLOUDY    69  66  88 W23G31    29.98R
$$

NEZ050>053-065>068-078-088>093-180800-
SOUTHEAST NEBRASKA

CITY           SKY/WX    TMP DP  RH WIND       PRES   REMARKS
LINCOLN        CLOUDY    64  62  93 S5        29.93F
OMAHA EPPLEY   PTCLDY    68  61  78 SE7       29.92F
BEATRICE       CLOUDY    66  60  81 SE3       29.94F
FALLS CITY     CLOUDY    61  60  97 CALM      29.95S
NEBRASKA CITY  CLEAR     63  63  99 S5        29.95F
PLATTSMOUTH    PTCLDY    63  61  91 SE5       29.94F
$$

NEZ044-045-051>053-067-180800-
OMAHA AREA

CITY           SKY/WX    TMP DP  RH WIND       PRES   REMARKS
OMAHA EPPLEY   PTCLDY    68  61  78 SE7       29.92F
BLAIR          RAIN      67  62  84 SE5       29.93F
FREMONT        PTCLDY    65  64  94 SE3       29.92F
MILLARD        CLEAR     65  64  94 SE3       29.92F
OFFUTT AFB     CLEAR     60  59  95 CALM      29.92F
PLATTSMOUTH    PTCLDY    63  61  91 SE5       29.94F
WAHOO          FAIR      62  61  97 CALM      29.93F
$$




USA.gov is the U.S. government's official web portal to all federal, state and local government web resources and services.